East Point, Prince Edward Island

8:08 PM ADT on June 19, 2018 (GMT -0300)
East Point

Weather History for CWEP - September, 2017

Change the Weather History Date:

Thursday, September 14, 2017

  Actual Average Record
Temperature  
Mean Temperature 68 °F -  
Max Temperature 73 °F - - ()
Min Temperature 61 °F - - ()
Cooling Degree Days 2    
Growing Degree Days 18 (Base 50)    
Moisture  
Dew Point 58 °F    
Average Humidity 71    
Maximum Humidity 90    
Minimum Humidity 51    
Precipitation  
Precipitation 0.04 in - - ()
Sea Level Pressure  
Sea Level Pressure 29.77 in    
Wind  
Wind Speed 8 mph ()    
Max Wind Speed 13 mph    
Max Gust Speed 17 mph    
T = Trace of Precipitation, MM = Missing Value Source: Averaged Metar Reports

Daily Weather History Graph

Daily Weather History Graph

Search for Another Location

Airport or City:

Astronomy

Sep. 14, 2017 Rise Set
Actual Time 6:44 AM ADT 7:20 PM ADT
Civil Twilight 6:14 AM ADT 7:51 PM ADT
Nautical Twilight 5:38 AM ADT 8:27 PM ADT
Astronomical Twilight 5:00 AM ADT 9:04 PM ADT
Moon 12:21 AM ADT (9/14) 3:49 PM ADT (9/14)
Length of Visible Light 13h 36m
Length of Day
12h 36m
Waning Crescent, 35% of the Moon is Illuminated
Sep 14
Waning Crescent
Sep 20
New
Sep 27
First Quarter
Oct 5
Full
Oct 12
Last Quarter

Hourly Weather History & Observations

Time (ADT) Temp. Dew Point Humidity Pressure Visibility Wind Dir Wind Speed Gust Speed Precip Events Conditions
12:00 AM 65 °F 56 °F 65% 29.70 in - SW 10.4 mph - -  
3:00 AM 63 °F 56 °F 72% 29.70 in - SSW 11.5 mph - -  
3:00 AM 63.0 °F 56.3 °F 79% 29.70 in - SSW 11.5 mph - N/A   Unknown
4:00 AM 62.8 °F 56.8 °F 81% 29.70 in - SW 10.4 mph - N/A   Unknown
6:00 AM 63 °F 56 °F 72% 29.72 in - SW 11.5 mph - -  
6:00 AM 62.6 °F 56.1 °F 79% 29.72 in - SW 11.5 mph - N/A   Unknown
7:00 AM 62.6 °F 56.5 °F 80% 29.73 in - SW 10.4 mph - N/A   Unknown
8:00 AM 64.8 °F 56.8 °F 75% 29.75 in - SW 11.5 mph 17.3 mph N/A   Unknown
9:00 AM 66 °F 57 °F 65% 29.76 in - SW 11.5 mph - -  
10:00 AM 69.6 °F 57.4 °F 65% 29.76 in - WSW 9.2 mph - N/A   Unknown
11:00 AM 73.0 °F 57.7 °F 59% 29.77 in - West 8.1 mph - N/A   Unknown
12:00 PM 72 °F 58 °F 51% 29.78 in - West 12.7 mph - -  
12:00 PM 72.0 °F 57.7 °F 61% 29.78 in - West 12.7 mph - N/A   Unknown
2:00 PM 71.4 °F 57.9 °F 62% 29.78 in - West 10.4 mph - N/A   Unknown
3:00 PM 71 °F 59 °F 57% 29.78 in - WNW 8.1 mph - -  
3:00 PM 70.5 °F 58.8 °F 66% 29.78 in - WNW 8.1 mph - N/A   Unknown
4:00 PM 70.0 °F 57.7 °F 65% 29.79 in - WNW 6.9 mph - N/A   Unknown
5:00 PM 69.4 °F 57.7 °F 66% 29.79 in - WNW 5.8 mph - N/A   Unknown
6:00 PM 68 °F 58 °F 61% 29.80 in - NNW 2.3 mph - -  
6:00 PM 68.0 °F 57.7 °F 70% 29.80 in - North 2.3 mph - N/A   Unknown
7:00 PM 64.9 °F 59.5 °F 83% 29.82 in - ENE 2.3 mph - N/A   Unknown
9:00 PM 63 °F 58 °F 80% 29.86 in - SE 3.5 mph - -  
10:00 PM 62.1 °F 58.8 °F 89% 29.86 in - SSE 4.6 mph - N/A   Unknown
11:00 PM 61.9 °F 59.0 °F 90% 29.88 in - ESE 2.3 mph - N/A   Unknown